Location: Newark
(47.5833°N, 8.1500°E)
Time: 18:44:20
(UTC+00:00)

Tiros 1 despin weight - Pass Details

Date: 04 November 2020
Orbit: 593 x 642 km, 48.2° (Epoch: 24 November)

Event Time Altitude Azimuth Distance (km) Brightness Sun altitude
Rises 00:21:45 0° 275° (W) 2,872 - -54.7°
Reaches altitude 10° 00:24:04 10° 276° (W) 1,959 - -54.5°
Maximum altitude 00:28:34 83° 5° (N) 611 - -54.1°
Drops below altitude 10° 00:33:01 10° 93° (E) 1,934 - -53.7°
Sets 00:35:17 0° 95° (E) 2,831 - -53.5°
